Location: Island Grove Observatory.
(44.2333°N, 79.4500°W)
Time: 12:00:32
(UTC-05:00)

N. Korean satellite - Pass Details

Date: 02 December 2021
Orbit: 447 x 491 km, 97.3° (Epoch: 23 January)

Event Time Altitude Azimuth Distance (km) Brightness Sun altitude
Rises 05:30:21 0° 13° (NNE) 2,470 10.2 -21.6°
Reaches altitude 10° 05:32:25 10° 16° (NNE) 1,588 9.2 -21.2°
Maximum altitude 05:35:48 74° 102° (ESE) 471 6.5 -20.6°
Drops below altitude 10° 05:39:09 10° 188° (S) 1,568 9.2 -20.1°
Sets 05:41:10 0° 190° (S) 2,434 10.2 -19.7°
